Location: Newark
(11.0000°N, 122.6717°E)
Time: 19:50:53
(UTC+00:00)

STARLINK 1039 - Pass Details

Date: 15 December 2019
Orbit: 548 x 551 km, 53.0° (Epoch: 17 January)

Event Time Altitude Azimuth Distance (km) Brightness Sun altitude
Rises 11:08:28 0° 221° (SW) 2,702 8.2 -23.5°
Reaches altitude 10° 11:10:42 10° 225° (SW) 1,811 7.1 -24.0°
Enters shadow 11:14:37 60° 294° (WNW) 632 4.0 -24.9°
